iso_date,epoch_date,Year,Hour,Min,DOY,POS_DOY,Lat,Lon,BP,Ts,Ta,has_bp,has_ts,has_ta,BuoyID,Buoy_Type,Buoy_Owner,Logistics,Hemisphere
2021-03-06T00:00:00Z,1614988800,2021,0,0,65.0,65.0,-72.8854,-20.7054,977.6,-0.6,-3.1,yes,yes,yes,300234065740680,BD2GI,AOML,SA_AGULHAS,South
2021-03-06T01:00:02Z,1614992403,2021,1,0,65.0417,65.0417,-72.892,-20.7142,978.1,-0.6,-3.1,yes,yes,yes,300234065740680,BD2GI,AOML,SA_AGULHAS,South
2021-03-06T01:59:57Z,1614995997,2021,2,0,65.0833,65.0833,-72.898,-20.723,979.0,-0.6,-3.1,yes,yes,yes,300234065740680,BD2GI,AOML,SA_AGULHAS,South
2021-03-06T03:00:00Z,1614999600,2021,3,0,65.125,65.125,-72.9054,-20.7332,980.1,-0.6,-4.1,yes,yes,yes,300234065740680,BD2GI,AOML,SA_AGULHAS,South
2021-03-06T04:00:02Z,1615003203,2021,4,0,65.1667,65.1667,-72.9134,-20.7452,981.0,-0.6,-3.8,yes,yes,yes,300234065740680,BD2GI,AOML,SA_AGULHAS,South
2021-03-06T04:59:57Z,1615006797,2021,5,0,65.2083,65.2083,-72.922,-20.7598,981.7,-0.6,-3.1,yes,yes,yes,300234065740680,BD2GI,AOML,SA_AGULHAS,South
2021-03-06T06:00:00Z,1615010400,2021,6,0,65.25,65.25,-72.9316,-20.775,982.6,-0.6,-2.6,yes,yes,yes,300234065740680,BD2GI,AOML,SA_AGULHAS,South
2021-03-06T07:00:02Z,1615014003,2021,7,0,65.2917,65.2917,-72.9418,-20.7902,983.4,-0.6,-2.4,yes,yes,yes,300234065740680,BD2GI,AOML,SA_AGULHAS,South
2021-03-06T08:00:57Z,1615017658,2021,8,1,65.334,65.334,-72.9522,-20.805,984.0,-0.6,-2.2,yes,yes,yes,300234065740680,BD2GI,AOML,SA_AGULHAS,South
2021-03-06T09:01:00Z,1615021260,2021,9,1,65.3757,65.3757,-72.9628,-20.8208,984.6,-0.6,-1.9,yes,yes,yes,300234065740680,BD2GI,AOML,SA_AGULHAS,South
2021-03-06T10:00:02Z,1615024803,2021,10,0,65.4167,65.4167,-72.9734,-20.8374,985.1,-0.6,-1.9,yes,yes,yes,300234065740680,BD2GI,AOML,SA_AGULHAS,South
2021-03-06T10:59:57Z,1615028397,2021,11,0,65.4583,65.4583,-72.9832,-20.8544,985.6,-0.6,-3.6,yes,yes,yes,300234065740680,BD2GI,AOML,SA_AGULHAS,South
2021-03-06T12:00:00Z,1615032000,2021,12,0,65.5,65.5,-72.992,-20.8738,986.0,-0.6,-2.3,yes,yes,yes,300234065740680,BD2GI,AOML,SA_AGULHAS,South
2021-03-06T13:00:02Z,1615035603,2021,13,0,65.5417,65.5417,-73.001,-20.8952,986.5,-0.6,-2.1,yes,yes,yes,300234065740680,BD2GI,AOML,SA_AGULHAS,South
2021-03-06T14:00:57Z,1615039258,2021,14,1,65.584,65.584,-73.01,-20.9204,987.0,-0.6,-1.7,yes,yes,yes,300234065740680,BD2GI,AOML,SA_AGULHAS,South
2021-03-06T15:00:00Z,1615042800,2021,15,0,65.625,65.625,-73.0192,-20.9488,987.6,-0.6,-2.1,yes,yes,yes,300234065740680,BD2GI,AOML,SA_AGULHAS,South
2021-03-06T16:00:02Z,1615046403,2021,16,0,65.6667,65.6667,-73.0282,-20.9802,988.0,-0.6,-1.9,yes,yes,yes,300234065740680,BD2GI,AOML,SA_AGULHAS,South
2021-03-06T17:00:57Z,1615050058,2021,17,1,65.709,65.709,-73.0376,-21.0142,988.6,-0.6,-3.0,yes,yes,yes,300234065740680,BD2GI,AOML,SA_AGULHAS,South
2021-03-06T18:00:00Z,1615053600,2021,18,0,65.75,65.75,-73.0476,-21.049,989.4,-0.6,-2.9,yes,yes,yes,300234065740680,BD2GI,AOML,SA_AGULHAS,South
2021-03-06T19:00:02Z,1615057203,2021,19,0,65.7917,65.7917,-73.0588,-21.0834,990.1,-0.6,-3.0,yes,yes,yes,300234065740680,BD2GI,AOML,SA_AGULHAS,South
2021-03-06T20:00:57Z,1615060858,2021,20,1,65.834,65.834,-73.0696,-21.116,990.5,-0.6,-2.4,yes,yes,yes,300234065740680,BD2GI,AOML,SA_AGULHAS,South
2021-03-06T21:00:00Z,1615064400,2021,21,0,65.875,65.875,-73.0786,-21.146,991.2,-0.6,-2.1,yes,yes,yes,300234065740680,BD2GI,AOML,SA_AGULHAS,South
2021-03-06T22:00:02Z,1615068003,2021,22,0,65.9167,65.9167,-73.0884,-21.1818,991.8,-0.6,-2.3,yes,yes,yes,300234065740680,BD2GI,AOML,SA_AGULHAS,South
2021-03-06T23:00:57Z,1615071658,2021,23,1,65.959,65.959,-73.0972,-21.2214,992.5,-0.6,-2.4,yes,yes,yes,300234065740680,BD2GI,AOML,SA_AGULHAS,South
2021-03-07T00:00:00Z,1615075200,2021,0,0,66.0,66.0,-73.1044,-21.2622,992.9,-0.6,-2.2,yes,yes,yes,300234065740680,BD2GI,AOML,SA_AGULHAS,South
2021-03-07T01:00:02Z,1615078803,2021,1,0,66.0417,66.0417,-73.1108,-21.3084,993.2,-0.6,-2.8,yes,yes,yes,300234065740680,BD2GI,AOML,SA_AGULHAS,South
2021-03-07T01:59:57Z,1615082397,2021,2,0,66.0833,66.0833,-73.1176,-21.3608,993.4,-0.6,-3.2,yes,yes,yes,300234065740680,BD2GI,AOML,SA_AGULHAS,South
2021-03-07T03:00:00Z,1615086000,2021,3,0,66.125,66.125,-73.1246,-21.4116,993.7,-0.6,-2.8,yes,yes,yes,300234065740680,BD2GI,AOML,SA_AGULHAS,South
2021-03-07T04:00:02Z,1615089603,2021,4,0,66.1667,66.1667,-73.132,-21.4608,993.9,-0.6,-2.8,yes,yes,yes,300234065740680,BD2GI,AOML,SA_AGULHAS,South
2021-03-07T04:59:57Z,1615093197,2021,5,0,66.2083,66.2083,-73.1396,-21.5092,994.0,-0.6,-2.8,yes,yes,yes,300234065740680,BD2GI,AOML,SA_AGULHAS,South
2021-03-07T06:00:00Z,1615096800,2021,6,0,66.25,66.25,-73.1476,-21.5518,994.5,-0.6,-2.4,yes,yes,yes,300234065740680,BD2GI,AOML,SA_AGULHAS,South
2021-03-07T07:00:02Z,1615100403,2021,7,0,66.2917,66.2917,-73.1542,-21.5924,994.7,-0.6,-2.9,yes,yes,yes,300234065740680,BD2GI,AOML,SA_AGULHAS,South
2021-03-07T07:59:57Z,1615103997,2021,8,0,66.3333,66.3333,-73.1604,-21.636,994.7,-0.6,-3.2,yes,yes,yes,300234065740680,BD2GI,AOML,SA_AGULHAS,South
2021-03-07T09:01:00Z,1615107660,2021,9,1,66.3757,66.3757,-73.1664,-21.6804,994.7,-0.6,-3.2,yes,yes,yes,300234065740680,BD2GI,AOML,SA_AGULHAS,South
2021-03-07T10:00:02Z,1615111203,2021,10,0,66.4167,66.4167,-73.172,-21.7222,994.8,-0.6,-2.8,yes,yes,yes,300234065740680,BD2GI,AOML,SA_AGULHAS,South
2021-03-07T10:59:57Z,1615114797,2021,11,0,66.4583,66.4583,-73.1774,-21.7636,995.3,-0.6,-3.1,yes,yes,yes,300234065740680,BD2GI,AOML,SA_AGULHAS,South
2021-03-07T12:01:00Z,1615118460,2021,12,1,66.5007,66.5007,-73.1834,-21.807,995.8,-0.6,-2.4,yes,yes,yes,300234065740680,BD2GI,AOML,SA_AGULHAS,South
2021-03-07T13:00:02Z,1615122003,2021,13,0,66.5417,66.5417,-73.1888,-21.848,996.4,-0.6,-2.2,yes,yes,yes,300234065740680,BD2GI,AOML,SA_AGULHAS,South
2021-03-07T13:59:57Z,1615125597,2021,14,0,66.5833,66.5833,-73.194,-21.8892,996.8,-0.6,-1.9,yes,yes,yes,300234065740680,BD2GI,AOML,SA_AGULHAS,South
2021-03-07T15:00:00Z,1615129200,2021,15,0,66.625,66.625,-73.1992,-21.9322,997.3,-0.6,-1.5,yes,yes,yes,300234065740680,BD2GI,AOML,SA_AGULHAS,South
2021-03-07T16:00:02Z,1615132803,2021,16,0,66.6667,66.6667,-73.2042,-21.9774,997.7,-0.6,-2.2,yes,yes,yes,300234065740680,BD2GI,AOML,SA_AGULHAS,South
2021-03-07T16:59:57Z,1615136397,2021,17,0,66.7083,66.7083,-73.2088,-22.024,998.1,-0.6,-2.6,yes,yes,yes,300234065740680,BD2GI,AOML,SA_AGULHAS,South
2021-03-07T18:00:00Z,1615140000,2021,18,0,66.75,66.75,-73.2138,-22.0726,998.5,-0.6,-3.1,yes,yes,yes,300234065740680,BD2GI,AOML,SA_AGULHAS,South
2021-03-07T19:01:03Z,1615143663,2021,19,1,66.7924,66.7924,-73.2194,-22.1212,998.7,-0.6,-3.3,yes,yes,yes,300234065740680,BD2GI,AOML,SA_AGULHAS,South
2021-03-07T19:59:57Z,1615147197,2021,20,0,66.8333,66.8333,-73.2248,-22.167,999.0,-0.6,-2.7,yes,yes,yes,300234065740680,BD2GI,AOML,SA_AGULHAS,South
2021-03-07T21:00:00Z,1615150800,2021,21,0,66.875,66.875,-73.2298,-22.2138,999.4,-0.6,-1.6,yes,yes,yes,300234065740680,BD2GI,AOML,SA_AGULHAS,South
2021-03-07T22:01:03Z,1615154463,2021,22,1,66.9174,66.9174,-73.235,-22.2568,999.7,-0.6,-0.8,yes,yes,yes,300234065740680,BD2GI,AOML,SA_AGULHAS,South
2021-03-07T22:59:57Z,1615157997,2021,23,0,66.9583,66.9583,-73.2412,-22.2958,1000.0,-0.6,-0.5,yes,yes,yes,300234065740680,BD2GI,AOML,SA_AGULHAS,South
2021-03-08T00:00:00Z,1615161600,2021,0,0,67.0,67.0,-73.2484,-22.3332,1000.5,-0.6,-0.8,yes,yes,yes,300234065740680,BD2GI,AOML,SA_AGULHAS,South
2021-03-08T01:01:03Z,1615165263,2021,1,1,67.0424,67.0424,-73.2552,-22.3658,1000.6,-0.6,-0.7,yes,yes,yes,300234065740680,BD2GI,AOML,SA_AGULHAS,South
2021-03-08T01:59:57Z,1615168797,2021,2,0,67.0833,67.0833,-73.2618,-22.3938,1000.7,-0.6,-0.6,yes,yes,yes,300234065740680,BD2GI,AOML,SA_AGULHAS,South
2021-03-08T03:00:00Z,1615172400,2021,3,0,67.125,67.125,-73.2686,-22.4202,1000.5,-0.6,-0.7,yes,yes,yes,300234065740680,BD2GI,AOML,SA_AGULHAS,South
2021-03-08T04:01:03Z,1615176063,2021,4,1,67.1674,67.1674,-73.2746,-22.446,1000.6,-0.6,-0.9,yes,yes,yes,300234065740680,BD2GI,AOML,SA_AGULHAS,South
2021-03-08T04:59:57Z,1615179597,2021,5,0,67.2083,67.2083,-73.2796,-22.4726,1000.5,-0.6,-0.9,yes,yes,yes,300234065740680,BD2GI,AOML,SA_AGULHAS,South
2021-03-08T06:00:00Z,1615183200,2021,6,0,67.25,67.25,-73.2826,-22.4948,1000.6,-0.6,-1.3,yes,yes,yes,300234065740680,BD2GI,AOML,SA_AGULHAS,South
2021-03-08T07:01:03Z,1615186863,2021,7,1,67.2924,67.2924,-73.284,-22.5178,1000.6,-0.6,-1.7,yes,yes,yes,300234065740680,BD2GI,AOML,SA_AGULHAS,South
2021-03-08T07:59:57Z,1615190397,2021,8,0,67.3333,67.3333,-73.285,-22.541,1000.6,-0.6,-2.0,yes,yes,yes,300234065740680,BD2GI,AOML,SA_AGULHAS,South
2021-03-08T09:00:00Z,1615194000,2021,9,0,67.375,67.375,-73.2872,-22.5692,1000.5,-0.6,-2.2,yes,yes,yes,300234065740680,BD2GI,AOML,SA_AGULHAS,South
2021-03-08T10:01:03Z,1615197663,2021,10,1,67.4174,67.4174,-73.2902,-22.5996,1000.5,-0.6,-2.1,yes,yes,yes,300234065740680,BD2GI,AOML,SA_AGULHAS,South
2021-03-08T10:59:57Z,1615201197,2021,11,0,67.4583,67.4583,-73.2934,-22.6298,1000.1,-0.6,-2.0,yes,yes,yes,300234065740680,BD2GI,AOML,SA_AGULHAS,South
2021-03-08T12:00:00Z,1615204800,2021,12,0,67.5,67.5,-73.2968,-22.6578,999.9,-0.6,-1.8,yes,yes,yes,300234065740680,BD2GI,AOML,SA_AGULHAS,South
2021-03-08T13:00:02Z,1615208403,2021,13,0,67.5417,67.5417,-73.2996,-22.6838,999.5,-0.6,-1.6,yes,yes,yes,300234065740680,BD2GI,AOML,SA_AGULHAS,South
2021-03-08T13:59:57Z,1615211997,2021,14,0,67.5833,67.5833,-73.3016,-22.7092,999.2,-0.6,-1.6,yes,yes,yes,300234065740680,BD2GI,AOML,SA_AGULHAS,South
2021-03-08T15:00:00Z,1615215600,2021,15,0,67.625,67.625,-73.303,-22.7352,998.8,-0.6,-1.7,yes,yes,yes,300234065740680,BD2GI,AOML,SA_AGULHAS,South
2021-03-08T16:01:03Z,1615219263,2021,16,1,67.6674,67.6674,-73.3034,-22.7626,998.4,-0.6,-1.9,yes,yes,yes,300234065740680,BD2GI,AOML,SA_AGULHAS,South
2021-03-08T16:59:57Z,1615222797,2021,17,0,67.7083,67.7083,-73.3034,-22.7936,998.1,-0.6,-2.1,yes,yes,yes,300234065740680,BD2GI,AOML,SA_AGULHAS,South
2021-03-08T18:00:00Z,1615226400,2021,18,0,67.75,67.75,-73.3034,-22.8274,997.6,-0.6,-2.3,yes,yes,yes,300234065740680,BD2GI,AOML,SA_AGULHAS,South
2021-03-08T19:00:02Z,1615230003,2021,19,0,67.7917,67.7917,-73.3038,-22.8614,997.3,-0.6,-2.2,yes,yes,yes,300234065740680,BD2GI,AOML,SA_AGULHAS,South
2021-03-08T20:00:57Z,1615233658,2021,20,1,67.834,67.834,-73.3048,-22.893,996.9,-0.6,-2.1,yes,yes,yes,300234065740680,BD2GI,AOML,SA_AGULHAS,South
2021-03-08T21:00:00Z,1615237200,2021,21,0,67.875,67.875,-73.306,-22.923,996.6,-0.5,-2.3,yes,yes,yes,300234065740680,BD2GI,AOML,SA_AGULHAS,South
2021-03-08T22:00:02Z,1615240803,2021,22,0,67.9167,67.9167,-73.307,-22.9524,996.3,-0.6,-2.3,yes,yes,yes,300234065740680,BD2GI,AOML,SA_AGULHAS,South
2021-03-08T22:59:57Z,1615244397,2021,23,0,67.9583,67.9583,-73.3078,-22.9756,996.0,-0.5,-2.3,yes,yes,yes,300234065740680,BD2GI,AOML,SA_AGULHAS,South
2021-03-09T00:01:00Z,1615248060,2021,0,1,68.0007,68.0007,-73.3084,-22.9964,995.4,-0.5,-2.2,yes,yes,yes,300234065740680,BD2GI,AOML,SA_AGULHAS,South
2021-03-09T01:00:02Z,1615251603,2021,1,0,68.0417,68.0417,-73.3084,-23.0198,994.8,-0.5,-1.9,yes,yes,yes,300234065740680,BD2GI,AOML,SA_AGULHAS,South
2021-03-09T01:59:57Z,1615255197,2021,2,0,68.0833,68.0833,-73.3084,-23.042,994.2,-0.5,-1.6,yes,yes,yes,300234065740680,BD2GI,AOML,SA_AGULHAS,South
2021-03-09T03:01:00Z,1615258860,2021,3,1,68.1257,68.1257,-73.3084,-23.0596,993.9,-0.5,-1.1,yes,yes,yes,300234065740680,BD2GI,AOML,SA_AGULHAS,South
2021-03-09T04:00:02Z,1615262403,2021,4,0,68.1667,68.1667,-73.3082,-23.076,993.3,-0.5,-1.0,yes,yes,yes,300234065740680,BD2GI,AOML,SA_AGULHAS,South
2021-03-09T04:59:57Z,1615265997,2021,5,0,68.2083,68.2083,-73.3072,-23.0946,993.1,-0.5,-1.0,yes,yes,yes,300234065740680,BD2GI,AOML,SA_AGULHAS,South
2021-03-09T06:01:00Z,1615269660,2021,6,1,68.2507,68.2507,-73.3058,-23.1148,992.9,-0.5,-1.1,yes,yes,yes,300234065740680,BD2GI,AOML,SA_AGULHAS,South
2021-03-09T07:00:02Z,1615273203,2021,7,0,68.2917,68.2917,-73.3046,-23.1392,992.7,-0.5,-1.1,yes,yes,yes,300234065740680,BD2GI,AOML,SA_AGULHAS,South
2021-03-09T08:00:57Z,1615276858,2021,8,1,68.334,68.334,-73.3034,-23.1654,992.2,-0.5,-1.0,yes,yes,yes,300234065740680,BD2GI,AOML,SA_AGULHAS,South
2021-03-09T09:01:00Z,1615280460,2021,9,1,68.3757,68.3757,-73.3024,-23.1924,991.8,-0.5,-1.0,yes,yes,yes,300234065740680,BD2GI,AOML,SA_AGULHAS,South
2021-03-09T10:01:03Z,1615284063,2021,10,1,68.4174,68.4174,-73.3016,-23.2208,991.4,-0.5,-0.6,yes,yes,yes,300234065740680,BD2GI,AOML,SA_AGULHAS,South
2021-03-09T10:59:57Z,1615287597,2021,11,0,68.4583,68.4583,-73.3014,-23.2482,991.0,-0.5,-0.5,yes,yes,yes,300234065740680,BD2GI,AOML,SA_AGULHAS,South
2021-03-09T12:00:00Z,1615291200,2021,12,0,68.5,68.5,-73.3022,-23.2742,990.4,-0.5,-0.4,yes,yes,yes,300234065740680,BD2GI,AOML,SA_AGULHAS,South
2021-03-09T13:01:03Z,1615294863,2021,13,1,68.5424,68.5424,-73.3042,-23.296,990.0,-0.5,-0.6,yes,yes,yes,300234065740680,BD2GI,AOML,SA_AGULHAS,South
2021-03-09T13:59:57Z,1615298397,2021,14,0,68.5833,68.5833,-73.3066,-23.3126,989.4,-0.5,-0.8,yes,yes,yes,300234065740680,BD2GI,AOML,SA_AGULHAS,South
2021-03-09T15:01:00Z,1615302060,2021,15,1,68.6257,68.6257,-73.3094,-23.3314,988.6,-0.5,-0.8,yes,yes,yes,300234065740680,BD2GI,AOML,SA_AGULHAS,South
2021-03-09T16:00:02Z,1615305603,2021,16,0,68.6667,68.6667,-73.3122,-23.3524,987.7,-0.5,-0.8,yes,yes,yes,300234065740680,BD2GI,AOML,SA_AGULHAS,South
2021-03-09T16:59:57Z,1615309197,2021,17,0,68.7083,68.7083,-73.3156,-23.3768,986.7,-0.5,-0.8,yes,yes,yes,300234065740680,BD2GI,AOML,SA_AGULHAS,South
2021-03-09T18:01:00Z,1615312860,2021,18,1,68.7507,68.7507,-73.3192,-23.4042,985.7,-0.5,-0.7,yes,yes,yes,300234065740680,BD2GI,AOML,SA_AGULHAS,South
2021-03-09T19:00:02Z,1615316403,2021,19,0,68.7917,68.7917,-73.3236,-23.4336,984.9,-0.5,-0.7,yes,yes,yes,300234065740680,BD2GI,AOML,SA_AGULHAS,South
2021-03-09T19:59:57Z,1615319997,2021,20,0,68.8333,68.8333,-73.3286,-23.463,984.3,-0.5,-0.5,yes,yes,yes,300234065740680,BD2GI,AOML,SA_AGULHAS,South
2021-03-09T21:01:00Z,1615323660,2021,21,1,68.8757,68.8757,-73.3342,-23.491,983.3,-0.5,-0.5,yes,yes,yes,300234065740680,BD2GI,AOML,SA_AGULHAS,South
2021-03-09T22:00:02Z,1615327203,2021,22,0,68.9167,68.9167,-73.3406,-23.5188,982.5,-0.5,-0.5,yes,yes,yes,300234065740680,BD2GI,AOML,SA_AGULHAS,South
2021-03-09T22:59:57Z,1615330797,2021,23,0,68.9583,68.9583,-73.3476,-23.5446,981.7,-0.5,-0.6,yes,yes,yes,300234065740680,BD2GI,AOML,SA_AGULHAS,South
2021-03-10T00:01:00Z,1615334460,2021,0,1,69.0007,69.0007,-73.354,-23.568,981.0,-0.5,-0.7,yes,yes,yes,300234065740680,BD2GI,AOML,SA_AGULHAS,South
2021-03-10T01:00:02Z,1615338003,2021,1,0,69.0417,69.0417,-73.3592,-23.5898,979.9,-0.5,-0.6,yes,yes,yes,300234065740680,BD2GI,AOML,SA_AGULHAS,South
2021-03-10T01:59:57Z,1615341597,2021,2,0,69.0833,69.0833,-73.3636,-23.6118,979.1,-0.5,-0.6,yes,yes,yes,300234065740680,BD2GI,AOML,SA_AGULHAS,South
2021-03-10T03:00:00Z,1615345200,2021,3,0,69.125,69.125,-73.368,-23.6346,978.2,-0.5,-0.4,yes,yes,yes,300234065740680,BD2GI,AOML,SA_AGULHAS,South
2021-03-10T04:00:02Z,1615348803,2021,4,0,69.1667,69.1667,-73.3728,-23.6564,977.4,-0.5,-0.2,yes,yes,yes,300234065740680,BD2GI,AOML,SA_AGULHAS,South
2021-03-10T04:59:57Z,1615352397,2021,5,0,69.2083,69.2083,-73.378,-23.6774,976.7,-0.5,-0.1,yes,yes,yes,300234065740680,BD2GI,AOML,SA_AGULHAS,South
2021-03-10T06:01:00Z,1615356060,2021,6,1,69.2507,69.2507,-73.3828,-23.6988,976.3,-0.5,0.0,yes,yes,yes,300234065740680,BD2GI,AOML,SA_AGULHAS,South
2021-03-10T07:00:02Z,1615359603,2021,7,0,69.2917,69.2917,-73.3868,-23.7186,975.9,-0.5,-0.1,yes,yes,yes,300234065740680,BD2GI,AOML,SA_AGULHAS,South
2021-03-10T07:59:57Z,1615363197,2021,8,0,69.3333,69.3333,-73.3906,-23.7372,975.6,-0.5,-0.1,yes,yes,yes,300234065740680,BD2GI,AOML,SA_AGULHAS,South
2021-03-10T09:00:00Z,1615366800,2021,9,0,69.375,69.375,-73.3938,-23.7534,975.4,-0.5,-0.2,yes,yes,yes,300234065740680,BD2GI,AOML,SA_AGULHAS,South
2021-03-10T10:01:03Z,1615370463,2021,10,1,69.4174,69.4174,-73.3968,-23.7678,975.3,-0.5,-0.3,yes,yes,yes,300234065740680,BD2GI,AOML,SA_AGULHAS,South
2021-03-10T10:59:57Z,1615373997,2021,11,0,69.4583,69.4583,-73.3996,-23.7806,975.3,-0.5,-0.4,yes,yes,yes,300234065740680,BD2GI,AOML,SA_AGULHAS,South
2021-03-10T12:00:00Z,1615377600,2021,12,0,69.5,69.5,-73.4032,-23.793,975.2,-0.5,-0.6,yes,yes,yes,300234065740680,BD2GI,AOML,SA_AGULHAS,South
2021-03-10T13:00:02Z,1615381203,2021,13,0,69.5417,69.5417,-73.4076,-23.8052,975.2,-0.5,-0.5,yes,yes,yes,300234065740680,BD2GI,AOML,SA_AGULHAS,South
2021-03-10T13:59:57Z,1615384797,2021,14,0,69.5833,69.5833,-73.4108,-23.815,975.3,-0.5,-0.5,yes,yes,yes,300234065740680,BD2GI,AOML,SA_AGULHAS,South
2021-03-10T15:00:00Z,1615388400,2021,15,0,69.625,69.625,-73.413,-23.823,975.3,-0.5,-0.2,yes,yes,yes,300234065740680,BD2GI,AOML,SA_AGULHAS,South
2021-03-10T16:01:03Z,1615392063,2021,16,1,69.6674,69.6674,-73.4142,-23.8294,975.5,-0.5,-0.2,yes,yes,yes,300234065740680,BD2GI,AOML,SA_AGULHAS,South
2021-03-10T16:59:57Z,1615395597,2021,17,0,69.7083,69.7083,-73.4154,-23.8362,975.8,-0.5,-0.1,yes,yes,yes,300234065740680,BD2GI,AOML,SA_AGULHAS,South
2021-03-10T18:00:00Z,1615399200,2021,18,0,69.75,69.75,-73.4162,-23.8448,976.1,-0.5,-0.2,yes,yes,yes,300234065740680,BD2GI,AOML,SA_AGULHAS,South
2021-03-10T19:01:03Z,1615402863,2021,19,1,69.7924,69.7924,-73.417,-23.8544,976.6,-0.5,-0.1,yes,yes,yes,300234065740680,BD2GI,AOML,SA_AGULHAS,South
2021-03-10T19:59:57Z,1615406397,2021,20,0,69.8333,69.8333,-73.4178,-23.8646,977.1,-0.5,-0.6,yes,yes,yes,300234065740680,BD2GI,AOML,SA_AGULHAS,South
2021-03-10T21:00:00Z,1615410000,2021,21,0,69.875,69.875,-73.4182,-23.8754,977.4,-0.5,-0.4,yes,yes,yes,300234065740680,BD2GI,AOML,SA_AGULHAS,South
2021-03-10T22:01:03Z,1615413663,2021,22,1,69.9174,69.9174,-73.419,-23.8878,977.8,-0.5,-0.4,yes,yes,yes,300234065740680,BD2GI,AOML,SA_AGULHAS,South
2021-03-10T22:59:57Z,1615417197,2021,23,0,69.9583,69.9583,-73.4196,-23.8998,978.3,-0.5,-0.6,yes,yes,yes,300234065740680,BD2GI,AOML,SA_AGULHAS,South
2021-03-11T00:00:00Z,1615420800,2021,0,0,70.0,70.0,-73.4202,-23.9108,978.6,-0.5,-0.5,yes,yes,yes,300234065740680,BD2GI,AOML,SA_AGULHAS,South
2021-03-11T01:01:03Z,1615424463,2021,1,1,70.0424,70.0424,-73.4208,-23.9206,979.2,-0.5,-0.8,yes,yes,yes,300234065740680,BD2GI,AOML,SA_AGULHAS,South
2021-03-11T01:59:57Z,1615427997,2021,2,0,70.0833,70.0833,-73.4216,-23.9298,979.5,-0.5,-1.2,yes,yes,yes,300234065740680,BD2GI,AOML,SA_AGULHAS,South
2021-03-11T03:00:00Z,1615431600,2021,3,0,70.125,70.125,-73.4226,-23.9382,979.7,-0.5,-1.0,yes,yes,yes,300234065740680,BD2GI,AOML,SA_AGULHAS,South
2021-03-11T04:01:03Z,1615435263,2021,4,1,70.1674,70.1674,-73.4236,-23.9468,980.1,-0.5,-1.2,yes,yes,yes,300234065740680,BD2GI,AOML,SA_AGULHAS,South
2021-03-11T04:59:57Z,1615438797,2021,5,0,70.2083,70.2083,-73.4244,-23.956,980.5,-0.5,-1.3,yes,yes,yes,300234065740680,BD2GI,AOML,SA_AGULHAS,South
2021-03-11T06:00:00Z,1615442400,2021,6,0,70.25,70.25,-73.4254,-23.966,981.1,-0.5,-1.3,yes,yes,yes,300234065740680,BD2GI,AOML,SA_AGULHAS,South
2021-03-11T07:01:03Z,1615446063,2021,7,1,70.2924,70.2924,-73.4262,-23.9768,981.7,-0.5,-1.4,yes,yes,yes,300234065740680,BD2GI,AOML,SA_AGULHAS,South
2021-03-11T08:00:57Z,1615449658,2021,8,1,70.334,70.334,-73.4272,-23.988,982.3,-0.5,-1.2,yes,yes,yes,300234065740680,BD2GI,AOML,SA_AGULHAS,South
2021-03-11T09:00:00Z,1615453200,2021,9,0,70.375,70.375,-73.4278,-23.9978,982.8,-0.5,-1.2,yes,yes,yes,300234065740680,BD2GI,AOML,SA_AGULHAS,South
2021-03-11T10:00:02Z,1615456803,2021,10,0,70.4167,70.4167,-73.4284,-24.0056,983.1,-0.5,-1.3,yes,yes,yes,300234065740680,BD2GI,AOML,SA_AGULHAS,South
2021-03-11T10:59:57Z,1615460397,2021,11,0,70.4583,70.4583,-73.4288,-24.0112,983.6,-0.5,-1.3,yes,yes,yes,300234065740680,BD2GI,AOML,SA_AGULHAS,South
2021-03-11T12:00:00Z,1615464000,2021,12,0,70.5,70.5,-73.4292,-24.0162,984.0,-0.5,-1.4,yes,yes,yes,300234065740680,BD2GI,AOML,SA_AGULHAS,South
2021-03-11T13:00:02Z,1615467603,2021,13,0,70.5417,70.5417,-73.4298,-24.0216,984.3,-0.5,-1.3,yes,yes,yes,300234065740680,BD2GI,AOML,SA_AGULHAS,South
2021-03-11T14:00:57Z,1615471258,2021,14,1,70.584,70.584,-73.4304,-24.028,984.5,-0.5,-1.2,yes,yes,yes,300234065740680,BD2GI,AOML,SA_AGULHAS,South
2021-03-11T15:00:00Z,1615474800,2021,15,0,70.625,70.625,-73.4314,-24.0362,984.6,-0.5,-1.3,yes,yes,yes,300234065740680,BD2GI,AOML,SA_AGULHAS,South
2021-03-11T16:00:02Z,1615478403,2021,16,0,70.6667,70.6667,-73.4328,-24.046,984.3,-0.5,-1.4,yes,yes,yes,300234065740680,BD2GI,AOML,SA_AGULHAS,South
2021-03-11T17:00:57Z,1615482058,2021,17,1,70.709,70.709,-73.4342,-24.0582,984.0,-0.5,-1.7,yes,yes,yes,300234065740680,BD2GI,AOML,SA_AGULHAS,South
2021-03-11T18:00:00Z,1615485600,2021,18,0,70.75,70.75,-73.436,-24.072,984.0,-0.5,-1.7,yes,yes,yes,300234065740680,BD2GI,AOML,SA_AGULHAS,South
2021-03-11T19:00:02Z,1615489203,2021,19,0,70.7917,70.7917,-73.4378,-24.0876,983.8,-0.5,-1.9,yes,yes,yes,300234065740680,BD2GI,AOML,SA_AGULHAS,South
2021-03-11T20:00:57Z,1615492858,2021,20,1,70.834,70.834,-73.44,-24.1042,983.5,-0.5,-1.9,yes,yes,yes,300234065740680,BD2GI,AOML,SA_AGULHAS,South
2021-03-11T21:00:00Z,1615496400,2021,21,0,70.875,70.875,-73.4422,-24.1206,983.0,-0.5,-2.1,yes,yes,yes,300234065740680,BD2GI,AOML,SA_AGULHAS,South
2021-03-11T22:00:02Z,1615500003,2021,22,0,70.9167,70.9167,-73.4446,-24.1382,982.4,-0.5,-2.0,yes,yes,yes,300234065740680,BD2GI,AOML,SA_AGULHAS,South
2021-03-11T22:59:57Z,1615503597,2021,23,0,70.9583,70.9583,-73.4474,-24.1574,981.5,-0.5,-2.0,yes,yes,yes,300234065740680,BD2GI,AOML,SA_AGULHAS,South
2021-03-12T00:01:00Z,1615507260,2021,0,1,71.0007,71.0007,-73.4504,-24.1784,980.5,-0.5,-1.8,yes,yes,yes,300234065740680,BD2GI,AOML,SA_AGULHAS,South
2021-03-12T01:00:02Z,1615510803,2021,1,0,71.0417,71.0417,-73.4538,-24.2006,979.6,-0.5,-1.7,yes,yes,yes,300234065740680,BD2GI,AOML,SA_AGULHAS,South
2021-03-12T01:59:57Z,1615514397,2021,2,0,71.0833,71.0833,-73.4576,-24.2252,978.7,-0.5,-1.5,yes,yes,yes,300234065740680,BD2GI,AOML,SA_AGULHAS,South
2021-03-12T03:00:00Z,1615518000,2021,3,0,71.125,71.125,-73.4616,-24.2534,977.4,-0.5,-1.6,yes,yes,yes,300234065740680,BD2GI,AOML,SA_AGULHAS,South
2021-03-12T04:01:03Z,1615521663,2021,4,1,71.1674,71.1674,-73.4666,-24.2856,976.2,-0.5,-1.7,yes,yes,yes,300234065740680,BD2GI,AOML,SA_AGULHAS,South
2021-03-12T04:59:57Z,1615525197,2021,5,0,71.2083,71.2083,-73.4714,-24.3206,974.7,-0.5,-1.7,yes,yes,yes,300234065740680,BD2GI,AOML,SA_AGULHAS,South
2021-03-12T06:00:00Z,1615528800,2021,6,0,71.25,71.25,-73.4766,-24.3598,973.4,-0.5,-1.8,yes,yes,yes,300234065740680,BD2GI,AOML,SA_AGULHAS,South
2021-03-12T07:01:03Z,1615532463,2021,7,1,71.2924,71.2924,-73.4826,-24.4026,972.1,-0.5,-2.4,yes,yes,yes,300234065740680,BD2GI,AOML,SA_AGULHAS,South
2021-03-12T07:59:57Z,1615535997,2021,8,0,71.3333,71.3333,-73.4886,-24.4478,971.2,-0.5,-2.7,yes,yes,yes,300234065740680,BD2GI,AOML,SA_AGULHAS,South
2021-03-12T09:00:00Z,1615539600,2021,9,0,71.375,71.375,-73.4948,-24.4946,970.3,-0.5,-2.8,yes,yes,yes,300234065740680,BD2GI,AOML,SA_AGULHAS,South
2021-03-12T10:01:03Z,1615543263,2021,10,1,71.4174,71.4174,-73.5012,-24.539,969.6,-0.5,-3.1,yes,yes,yes,300234065740680,BD2GI,AOML,SA_AGULHAS,South
2021-03-12T10:59:57Z,1615546797,2021,11,0,71.4583,71.4583,-73.5064,-24.5784,968.8,-0.5,-3.2,yes,yes,yes,300234065740680,BD2GI,AOML,SA_AGULHAS,South
2021-03-12T12:00:00Z,1615550400,2021,12,0,71.5,71.5,-73.5108,-24.615,968.0,-0.5,-3.4,yes,yes,yes,300234065740680,BD2GI,AOML,SA_AGULHAS,South
2021-03-12T13:00:02Z,1615554003,2021,13,0,71.5417,71.5417,-73.5148,-24.6486,967.1,-0.5,-3.7,yes,yes,yes,300234065740680,BD2GI,AOML,SA_AGULHAS,South
2021-03-12T14:00:57Z,1615557658,2021,14,1,71.584,71.584,-73.5186,-24.6838,966.3,-0.5,-3.8,yes,yes,yes,300234065740680,BD2GI,AOML,SA_AGULHAS,South
2021-03-12T15:00:00Z,1615561200,2021,15,0,71.625,71.625,-73.5226,-24.7204,965.3,-0.5,-4.0,yes,yes,yes,300234065740680,BD2GI,AOML,SA_AGULHAS,South
2021-03-12T16:00:02Z,1615564803,2021,16,0,71.6667,71.6667,-73.5266,-24.7586,964.3,-0.5,-4.2,yes,yes,yes,300234065740680,BD2GI,AOML,SA_AGULHAS,South
2021-03-12T17:00:57Z,1615568458,2021,17,1,71.709,71.709,-73.531,-24.7986,963.4,-0.5,-4.4,yes,yes,yes,300234065740680,BD2GI,AOML,SA_AGULHAS,South
2021-03-12T18:00:00Z,1615572000,2021,18,0,71.75,71.75,-73.535,-24.837,962.3,-0.5,-4.5,yes,yes,yes,300234065740680,BD2GI,AOML,SA_AGULHAS,South